When you browse on this site, cookies collect data to enhance your experience and personalize the content and advertising you see.
Visit our Privacy Policy to learn more. By continuing to use the site, you agree to this use of cookies and data.
  • In Latvia
  • List of Countries
  • For 7 days
  • Water Temperature
  • Satellite Maps
  • Weather Map
  • Weather Widgets
  • user-avatar
    Login

    Hourly Weather Saurimo

    Today, 16 July, Tuesday

    Time Temperature Precipitation Wind Pressure Humidity
    00:00 +18°C° 0 mm 2 mps 671 mmHg 32%
    01:00 +16°C° 0 mm 2 mps 671 mmHg 34%
    02:00 +16°C° 0 mm 2 mps 671 mmHg 36%
    03:00 +16°C° 0 mm 2 mps 671 mmHg 38%
    04:00 +16°C° 0 mm 2 mps 670 mmHg 39%
    05:00 +16°C° 0 mm 3 mps 671 mmHg 39%
    06:00 +17°C° 0 mm 3 mps 671 mmHg 39%
    07:00 +17°C° 0 mm 3 mps 672 mmHg 39%
    08:00 +21°C° 0 mm 3 mps 673 mmHg 33%
    09:00 +25°C° 0 mm 4 mps 673 mmHg 27%
    10:00 +29°C° 0 mm 4 mps 674 mmHg 22%
    11:00 +31°C° 0 mm 3 mps 673 mmHg 19%
    12:00 +34°C° 0 mm 2 mps 673 mmHg 17%
    13:00 +35°C° 0 mm 2 mps 673 mmHg 16%
    14:00 +34°C° 0 mm 2 mps 673 mmHg 16%
    15:00 +33°C° 0 mm 1 mps 672 mmHg 16%
    16:00 +33°C° 0 mm 1 mps 671 mmHg 17%
    17:00 +30°C° 0 mm 1 mps 671 mmHg 21%
    18:00 +27°C° 0 mm 1 mps 671 mmHg 24%
    19:00 +24°C° 0 mm 1 mps 671 mmHg 28%
    20:00 +23°C° 0 mm 2 mps 671 mmHg 30%
    21:00 +21°C° 0 mm 2 mps 671 mmHg 31%
    22:00 +20°C° 0 mm 2 mps 672 mmHg 32%
    23:00 +19°C° 0 mm 2 mps 671 mmHg 32%

    Tomorrow, 17 July, Wednesday

    Time Temperature Precipitation Wind Pressure Humidity
    00:00 +19°C° 0 mm 2 mps 671 mmHg 33%
    01:00 +18°C° 0 mm 2 mps 671 mmHg 33%
    02:00 +18°C° 0 mm 2 mps 671 mmHg 32%
    03:00 +18°C° 0 mm 3 mps 671 mmHg 31%
    04:00 +18°C° 0 mm 3 mps 671 mmHg 30%
    05:00 +18°C° 0 mm 3 mps 672 mmHg 30%
    06:00 +18°C° 0 mm 3 mps 672 mmHg 30%
    07:00 +18°C° 0 mm 4 mps 673 mmHg 30%
    08:00 +21°C° 0 mm 4 mps 674 mmHg 26%
    09:00 +26°C° 0 mm 3 mps 674 mmHg 23%
    10:00 +29°C° 0 mm 3 mps 675 mmHg 19%
    11:00 +31°C° 0 mm 3 mps 674 mmHg 17%
    12:00 +34°C° 0 mm 2 mps 674 mmHg 15%
    13:00 +35°C° 0 mm 2 mps 674 mmHg 13%
    14:00 +35°C° 0 mm 2 mps 673 mmHg 13%
    15:00 +35°C° 0 mm 2 mps 672 mmHg 13%
    16:00 +34°C° 0 mm 2 mps 672 mmHg 13%
    17:00 +30°C° 0 mm 2 mps 672 mmHg 16%
    18:00 +27°C° 0 mm 1 mps 671 mmHg 19%
    19:00 +24°C° 0 mm 1 mps 671 mmHg 22%
    20:00 +23°C° 0 mm 2 mps 671 mmHg 24%
    21:00 +21°C° 0 mm 2 mps 672 mmHg 26%
    22:00 +19°C° 0 mm 2 mps 672 mmHg 28%
    23:00 +19°C° 0 mm 2 mps 671 mmHg 29%

    Day after tomorrow, 18 July, Thursday

    Time Temperature Precipitation Wind Pressure Humidity
    00:00 +18°C° 0 mm 2 mps 671 mmHg 29%
    01:00 +18°C° 0 mm 2 mps 671 mmHg 30%
    02:00 +18°C° 0 mm 3 mps 671 mmHg 30%
    03:00 +18°C° 0 mm 3 mps 671 mmHg 31%
    04:00 +18°C° 0 mm 3 mps 671 mmHg 32%
    05:00 +18°C° 0 mm 3 mps 671 mmHg 33%
    06:00 +18°C° 0 mm 3 mps 672 mmHg 34%
    07:00 +18°C° 0 mm 3 mps 672 mmHg 35%
    08:00 +22°C° 0 mm 4 mps 673 mmHg 30%
    09:00 +26°C° 0 mm 4 mps 673 mmHg 25%
    10:00 +29°C° 0 mm 4 mps 674 mmHg 19%
    11:00 +32°C° 0 mm 4 mps 673 mmHg 18%
    12:00 +33°C° 0 mm 4 mps 673 mmHg 16%
    13:00 +34°C° 0 mm 3 mps 672 mmHg 14%
    14:00 +34°C° 0 mm 3 mps 672 mmHg 15%
    15:00 +34°C° 0 mm 3 mps 671 mmHg 15%
    16:00 +33°C° 0 mm 3 mps 671 mmHg 15%
    17:00 +29°C° 0 mm 3 mps 671 mmHg 19%
    18:00 +26°C° 0 mm 2 mps 670 mmHg 23%
    19:00 +23°C° 0 mm 2 mps 670 mmHg 27%
    20:00 +21°C° 0 mm 2 mps 671 mmHg 28%
    21:00 +20°C° 0 mm 2 mps 671 mmHg 30%
    22:00 +19°C° 0 mm 2 mps 671 mmHg 31%
    23:00 +19°C° 0 mm 2 mps 670 mmHg 32%

    19 July, Friday

    Time Temperature Precipitation Wind Pressure Humidity
    00:00 +18°C° 0 mm 2 mps 670 mmHg 32%
    01:00 +17°C° 0 mm 2 mps 670 mmHg 33%
    02:00 +17°C° 0 mm 2 mps 670 mmHg 35%
    03:00 +16°C° 0 mm 2 mps 670 mmHg 36%
    04:00 +15°C° 0 mm 2 mps 670 mmHg 38%
    05:00 +16°C° 0 mm 2 mps 670 mmHg 38%
    06:00 +16°C° 0 mm 3 mps 671 mmHg 38%
    07:00 +17°C° 0 mm 3 mps 672 mmHg 38%
    08:00 +20°C° 0 mm 3 mps 672 mmHg 32%
    09:00 +25°C° 0 mm 4 mps 673 mmHg 26%
    10:00 +29°C° 0 mm 4 mps 674 mmHg 20%
    11:00 +30°C° 0 mm 4 mps 673 mmHg 18%
    12:00 +32°C° 0 mm 4 mps 673 mmHg 16%
    13:00 +34°C° 0 mm 3 mps 672 mmHg 15%
    14:00 +33°C° 0 mm 3 mps 671 mmHg 14%
    15:00 +33°C° 0 mm 3 mps 671 mmHg 14%
    16:00 +32°C° 0 mm 2 mps 671 mmHg 13%
    17:00 +29°C° 0 mm 2 mps 670 mmHg 17%
    18:00 +26°C° 0 mm 2 mps 670 mmHg 20%
    19:00 +23°C° 0 mm 2 mps 670 mmHg 23%
    20:00 +21°C° 0 mm 2 mps 670 mmHg 24%
    21:00 +20°C° 0 mm 2 mps 670 mmHg 25%
    22:00 +19°C° 0 mm 2 mps 671 mmHg 25%
    23:00 +18°C° 0 mm 2 mps 670 mmHg 26%

    20 July, Saturday

    Time Temperature Precipitation Wind Pressure Humidity
    00:00 +17°C° 0 mm 2 mps 670 mmHg 27%
    01:00 +16°C° 0 mm 2 mps 670 mmHg 28%
    02:00 +15°C° 0 mm 2 mps 669 mmHg 29%
    03:00 +15°C° 0 mm 2 mps 669 mmHg 30%
    04:00 +14°C° 0 mm 2 mps 669 mmHg 30%
    05:00 +15°C° 0 mm 2 mps 670 mmHg 30%
    06:00 +16°C° 0 mm 3 mps 671 mmHg 30%
    07:00 +17°C° 0 mm 3 mps 671 mmHg 30%
    08:00 +21°C° 0 mm 3 mps 672 mmHg 27%
    09:00 +26°C° 0 mm 4 mps 673 mmHg 23%
    10:00 +29°C° 0 mm 4 mps 673 mmHg 19%
    11:00 +32°C° 0 mm 4 mps 673 mmHg 17%
    12:00 +33°C° 0 mm 3 mps 672 mmHg 15%
    13:00 +35°C° 0 mm 2 mps 672 mmHg 12%
    14:00 +35°C° 0 mm 2 mps 672 mmHg 12%
    15:00 +34°C° 0 mm 2 mps 671 mmHg 12%
    16:00 +34°C° 0 mm 2 mps 671 mmHg 12%
    17:00 +30°C° 0 mm 2 mps 670 mmHg 15%
    18:00 +27°C° 0 mm 2 mps 670 mmHg 19%
    19:00 +23°C° 0 mm 2 mps 670 mmHg 22%
    20:00 +21°C° 0 mm 2 mps 670 mmHg 23%
    21:00 +21°C° 0 mm 2 mps 670 mmHg 24%
    22:00 +20°C° 0 mm 2 mps 671 mmHg 26%
    23:00 +19°C° 0 mm 2 mps 670 mmHg 26%

    21 July, Sunday

    Time Temperature Precipitation Wind Pressure Humidity
    00:00 +19°C° 0 mm 2 mps 670 mmHg 27%
    01:00 +18°C° 0 mm 2 mps 670 mmHg 28%
    02:00 +18°C° 0 mm 2 mps 670 mmHg 28%
    03:00 +18°C° 0 mm 2 mps 670 mmHg 29%
    04:00 +17°C° 0 mm 3 mps 670 mmHg 29%
    05:00 +18°C° 0 mm 3 mps 671 mmHg 29%
    06:00 +18°C° 0 mm 3 mps 671 mmHg 29%
    07:00 +18°C° 0 mm 3 mps 672 mmHg 29%
    08:00 +22°C° 0 mm 3 mps 673 mmHg 25%
    09:00 +26°C° 0 mm 3 mps 673 mmHg 21%
    10:00 +30°C° 0 mm 3 mps 674 mmHg 17%
    11:00 +31°C° 0 mm 3 mps 673 mmHg 15%
    12:00 +34°C° 0 mm 3 mps 673 mmHg 13%
    13:00 +36°C° 0 mm 2 mps 673 mmHg 11%
    14:00 +35°C° 0 mm 2 mps 672 mmHg 11%
    15:00 +35°C° 0 mm 2 mps 672 mmHg 11%
    16:00 +35°C° 0 mm 2 mps 671 mmHg 11%
    17:00 +30°C° 0 mm 1 mps 671 mmHg 14%
    18:00 +27°C° 0 mm 1 mps 670 mmHg 17%
    19:00 +21°C° 0 mm 0 mps 670 mmHg 21%
    20:00 +23°C° 0 mm 1 mps 670 mmHg 22%
    21:00 +22°C° 0 mm 1 mps 671 mmHg 23%
    22:00 +21°C° 0 mm 1 mps 671 mmHg 24%
    23:00 +20°C° 0 mm 1 mps 670 mmHg 26%
    Show more